Regional Weather Roundup
Issued by NWS Boston, MA

Home | Current Version | Previous Version | Text Only | Print | Product List | Glossary On
Versions: 1 2 3 4 5 6 7 8 9 10 11 12 13 14 15 16 17 18 19 20 21 22 23 24 25 26 27 28 29 30 31 32 33 34 35 36 37 38 39 40 41 42 43 44 45 46 47 48 49 50
000
ASUS41 KBOX 180710
RWRBOX

REGIONAL WEATHER ROUNDUP
NATIONAL WEATHER SERVICE TAUNTON MA
200 AM EST THU DEC 18 2014

NOTE:  "FAIR" INDICATES FEW OR NO CLOUDS BELOW 12,000 FEET WITH NO
SIGNIFICANT WEATHER AND/OR OBSTRUCTIONS TO VISIBILITY.  THE FOLLOWING
OBSERVATION LOCATIONS DO NOT REPORT PRESENT WEATHER...PROVINCETOWN...
SMITHFIELD...BLOCK ISLAND...KEENE...AND OXFORD.

MAZALL-180800-
EASTERN MASSACHUSETTS

CITY           SKY/WX    TMP DP  RH WIND       PRES   REMARKS
BOSTON         CLOUDY    40  31  70 W14G21    29.72R
BEVERLY        CLOUDY    39  31  72 W9        29.69S
LAWRENCE       CLOUDY    38  32  79 SW9       29.71S WCI  31
BEDFORD        CLOUDY    38  30  73 W12       29.71S WCI  30
BLUE HILL        N/A     36  30  79 W20G26    29.69S WCI  25
NORWOOD        CLOUDY    40  30  67 W8        29.72S
MARSHFIELD     CLOUDY    39  34  81 W9        29.74R
PLYMOUTH       CLOUDY    39  31  72 W9        29.73S
TAUNTON        CLOUDY    40  30  67 W9        29.74R
NEW BEDFORD    CLOUDY    39  31  72 W13       29.74R WCI  31
$$

MAZALL-180800-
CAPE COD AND THE ISLANDS

CITY           SKY/WX    TMP DP  RH WIND       PRES   REMARKS
FALMOUTH       CLOUDY    41  32  70 W13       29.73S
HYANNIS        CLOUDY    41  32  70 W12G18    29.71S
CHATHAM        CLOUDY    41  33  73 W8G17     29.72S
PROVINCETOWN   CLOUDY    43  32  65 W16G23    29.71S
NANTUCKET      CLOUDY    43  34  70 W14       29.73F
MARTHAS VNYRD  CLOUDY    40  30  67 W13       29.75S
$$

MAZALL-180800-
CENTRAL AND WESTERN MASSACHUSETTS

CITY           SKY/WX    TMP DP  RH WIND       PRES   REMARKS
WORCESTER      CLOUDY    34  28  79 W20G31    29.69S WCI  23
FITCHBURG      CLOUDY    38  29  70 NW9       29.72S WCI  31
ORANGE         CLOUDY    36  29  75 NW6       29.74S WCI  31
SPRINGFIELD    CLOUDY    38  29  68 W10       29.77S WCI  31
WESTFIELD      CLOUDY    40  28  62 W15G22    29.77F WCI  32
NORTH ADAMS    CLOUDY    35  28  75 W9G20     29.79S WCI  28
PITTSFIELD     LGT SNOW  32  29  88 W17G26    29.77R FOG     WCI  21
$$

RIZALL-180800-
RHODE ISLAND

CITY           SKY/WX    TMP DP  RH WIND       PRES   REMARKS
PROVIDENCE     CLOUDY    38  30  73 W12       29.76S WCI  30
NEWPORT        MOCLDY    38  30  73 W7        29.76R
BLOCK ISLAND   PTCLDY    41  30  65 W15G22    29.78F
SMITHFIELD     CLOUDY    37  25  60 W13G20    29.73S WCI  29
WESTERLY       CLEAR     38  31  76 W5        29.80S
$$

CTZALL-180800-
CONNECTICUT

CITY           SKY/WX    TMP DP  RH WIND       PRES   REMARKS
BRADLEY INTL   CLOUDY    40  29  64 W6        29.79S
HARTFORD       CLOUDY    38  31  76 SW8       29.82R
BRIDGEPORT     CLOUDY    41  30  65 W9        29.84R
DANBURY        CLOUDY    38  26  62 VRB5      29.84R
GROTON         CLOUDY    37  32  82 W10       29.80S WCI  30
NEW HAVEN      CLOUDY    44  31  60 W6        29.83R
CHESTER        CLOUDY    37  32  81 W5        29.80S
MERIDEN        CLOUDY    37  32  82 VRB3      29.82S
WILLIMANTIC    CLOUDY    39  29  67 VRB5      29.79R
OXFORD         CLOUDY    37  27  65 W5        29.81S
$$

MEZ002-015-021-024-NHZ003-005-008-011-012-014-VTZ005-008-180800-
NORTHERN NEW ENGLAND

CITY           SKY/WX    TMP DP  RH WIND       PRES   REMARKS
PORTLAND ME    CLOUDY    38  36  92 SW3       29.64F
BANGOR ME      LGT SNOW  33  31  92 N13       29.59S FOG     WCI  24
CONCORD NH     CLOUDY    37  32  82 VRB7      29.70R WCI  32
MANCHESTER NH  MOCLDY    39  31  72 W6        29.69R
NASHUA NH      PTCLDY    38  32  79 VRB3      29.72S
PORTSMOUTH NH  LGT RAIN  39  34  82 W9        29.67R
JAFFREY NH     CLOUDY    33  29  85 SE5       29.71R WCI  29
KEENE NH       CLOUDY    34  32  93 SW5       29.73S WCI  30
BURLINGTON VT  CLOUDY    36  33  89 CALM      29.75R
MT. WASHINGTON SNOW      16  16 100 NW44        N/A  VSB 1/16WCI  -8
$$

NYZ052-076-180800-
EASTERN NEW YORK

CITY           SKY/WX    TMP DP  RH WIND       PRES   REMARKS
ALBANY         LGT SNOW  35  30  82 W8        29.84R WCI  29
NEW YORK CITY  CLOUDY    41  26  55 W13G25    29.88R
$$

ANZALL-180800-
MARINE OBSERVATIONS

STATION/POSITION TIME  TEMP    WIND        PRES    VSBY  WAVE
                       AIR SEA DIR/SP/G                  HT/PER
                 (UTC) (F)     (DEG/KT/KT) (MB)    (MI)  (FT/S)
BOSTON BUOY      0650   41 46  280/ 17/ 23 1005.7R         4/ 8
BUZZARDS BAY     0600          280/ 23/ 25 1008.4R
NANTUCKET SOUND  0650   43 44  270/ 21/ 23 1006.2F         3/ 4
MASS BAY-STELLWA 0604   42 45  270/ 17/ 21   N/A    1 7/8  5/ 8
ISLE OF SHOALS   0600   41     280/ 21/ 24 1003.5S
S OF BLOCK IS    0608      52                N/A           6/ 6
$$

......................KEY.........................
  SKY/WX - SKY CONDITION/PRESENT WEATHER
  TMP    - TEMPERATURE IN FAHRENHEIT
  DWPT   - DEWPOINT IN FAHRENHEIT
  RH     - RELATIVE HUMIDITY IN PERCENT
  WIND   - DIRECTION AND SPEED IN MPH
  PRES   - MEAN SEA LEVEL PRESSURE IN INCHES OF HG
  WCI    - WIND CHILL INDEX
  VSB    - VISIBILITY IN MILES
  HX     - HEAT INDEX
  TC     - TEMPERATURE IN CELSIUS
  VRB    - VARIABLE WIND DIRECTION
  N/A    - NOT AVAILABLE


USA.gov is the U.S. government's official web portal to all federal, state and local government web resources and services.